EN

Hourly Weather Alovo

Today, 20 January, Wednesday

Time Temperature Precipitation Wind Pressure Humidity
00:00 -24°C° 0 mm 2 mps 748 mmHg 98%
01:00 -23°C° 0.1 mm 2 mps 748 mmHg 98%
02:00 -23°C° 0.1 mm 2 mps 748 mmHg 98%
03:00 -23°C° 0 mm 2 mps 748 mmHg 96%
04:00 -21°C° 0.1 mm 2 mps 748 mmHg 96%
05:00 -21°C° 0.1 mm 2 mps 747 mmHg 97%
06:00 -20°C° 0.1 mm 2 mps 747 mmHg 97%
07:00 -20°C° 0.1 mm 2 mps 748 mmHg 96%
08:00 -22°C° 0.1 mm 3 mps 748 mmHg 96%
09:00 -19°C° 0 mm 2 mps 748 mmHg 95%
10:00 -21°C° 0.1 mm 3 mps 748 mmHg 95%
11:00 -19°C° 0.1 mm 3 mps 749 mmHg 94%
12:00 -18°C° 0.1 mm 3 mps 749 mmHg 93%
13:00 -18°C° 0 mm 3 mps 749 mmHg 93%
14:00 -18°C° 0 mm 3 mps 749 mmHg 93%
15:00 -18°C° 0 mm 3 mps 749 mmHg 93%
16:00 -19°C° 0 mm 3 mps 749 mmHg 94%
17:00 -21°C° 0 mm 3 mps 749 mmHg 95%
18:00 -22°C° 0 mm 3 mps 750 mmHg 96%
19:00 -21°C° 0 mm 3 mps 750 mmHg 96%
20:00 -21°C° 0 mm 3 mps 750 mmHg 96%
21:00 -20°C° 0 mm 4 mps 750 mmHg 95%
22:00 -19°C° 0 mm 3 mps 750 mmHg 95%
23:00 -19°C° 0 mm 3 mps 750 mmHg 95%

Tomorrow, 21 January, Thursday

Time Temperature Precipitation Wind Pressure Humidity
00:00 -19°C° 0 mm 3 mps 751 mmHg 95%
01:00 -19°C° 0 mm 3 mps 751 mmHg 95%
02:00 -19°C° 0 mm 3 mps 751 mmHg 95%
03:00 -19°C° 0 mm 4 mps 751 mmHg 95%
04:00 -19°C° 0 mm 4 mps 751 mmHg 95%
05:00 -19°C° 0 mm 4 mps 751 mmHg 95%
06:00 -19°C° 0 mm 4 mps 751 mmHg 95%
07:00 -19°C° 0 mm 4 mps 751 mmHg 94%
08:00 -19°C° 0 mm 4 mps 751 mmHg 94%
09:00 -18°C° 0 mm 4 mps 751 mmHg 94%
10:00 -18°C° 0 mm 4 mps 751 mmHg 93%
11:00 -17°C° 0 mm 4 mps 751 mmHg 93%
12:00 -17°C° 0 mm 5 mps 751 mmHg 93%
13:00 -17°C° 0 mm 5 mps 751 mmHg 92%
14:00 -17°C° 0 mm 5 mps 751 mmHg 91%
15:00 -17°C° 0 mm 5 mps 751 mmHg 91%
16:00 -16°C° 0 mm 4 mps 750 mmHg 90%
17:00 -17°C° 0 mm 4 mps 750 mmHg 90%
18:00 -17°C° 0 mm 4 mps 750 mmHg 90%
19:00 -17°C° 0.2 mm 4 mps 750 mmHg 91%
20:00 -17°C° 0.2 mm 4 mps 750 mmHg 93%
21:00 -17°C° 0.2 mm 4 mps 749 mmHg 94%
22:00 -17°C° 0.3 mm 4 mps 749 mmHg 94%
23:00 -16°C° 0.3 mm 3 mps 749 mmHg 94%

Day after tomorrow, 22 January, Friday

Time Temperature Precipitation Wind Pressure Humidity
00:00 -16°C° 0.3 mm 3 mps 749 mmHg 94%
01:00 -17°C° 0 mm 3 mps 749 mmHg 95%
02:00 -16°C° 0 mm 2 mps 749 mmHg 95%
03:00 -17°C° 0 mm 2 mps 749 mmHg 95%
04:00 -17°C° 0 mm 2 mps 749 mmHg 96%
05:00 -18°C° 0 mm 2 mps 749 mmHg 96%
06:00 -16°C° 0 mm 1 mps 750 mmHg 96%
07:00 -16°C° 0 mm 1 mps 750 mmHg 96%
08:00 -16°C° 0 mm 1 mps 750 mmHg 95%
09:00 -16°C° 0 mm 0 mps 750 mmHg 95%
10:00 -15°C° 0 mm 1 mps 751 mmHg 94%
11:00 -14°C° 0 mm 1 mps 751 mmHg 93%
12:00 -13°C° 0 mm 1 mps 751 mmHg 92%
13:00 -13°C° 0 mm 1 mps 751 mmHg 93%
14:00 -13°C° 0 mm 1 mps 751 mmHg 93%
15:00 -13°C° 0 mm 0 mps 751 mmHg 93%
16:00 -13°C° 0 mm 1 mps 751 mmHg 93%
17:00 -13°C° 0 mm 1 mps 752 mmHg 93%
18:00 -15°C° 0 mm 2 mps 752 mmHg 93%
19:00 -15°C° 0.1 mm 2 mps 752 mmHg 93%
20:00 -14°C° 0.1 mm 2 mps 752 mmHg 94%
21:00 -15°C° 0.1 mm 3 mps 752 mmHg 94%
22:00 -14°C° 0.3 mm 3 mps 752 mmHg 94%
23:00 -15°C° 0.3 mm 4 mps 752 mmHg 94%

23 January, Saturday

Time Temperature Precipitation Wind Pressure Humidity
00:00 -14°C° 0.3 mm 4 mps 752 mmHg 94%
01:00 -12°C° 0.3 mm 4 mps 752 mmHg 94%
02:00 -12°C° 0.3 mm 4 mps 752 mmHg 94%
03:00 -12°C° 0.3 mm 4 mps 751 mmHg 94%
04:00 -11°C° 0.1 mm 4 mps 751 mmHg 94%
05:00 -10°C° 0.1 mm 4 mps 751 mmHg 94%
06:00 -10°C° 0.1 mm 4 mps 751 mmHg 94%
07:00 -9°C° 0 mm 4 mps 751 mmHg 95%
08:00 -7°C° 0 mm 4 mps 751 mmHg 95%
09:00 -5°C° 0 mm 4 mps 751 mmHg 95%
10:00 -4°C° 0.1 mm 4 mps 751 mmHg 97%
11:00 -2°C° 0.1 mm 4 mps 750 mmHg 98%
12:00 -1°C° 0.1 mm 4 mps 750 mmHg 99%
13:00 -1°C° 0 mm 5 mps 750 mmHg 99%
14:00 -1°C° 0 mm 5 mps 750 mmHg 98%
15:00 -1°C° 0 mm 5 mps 750 mmHg 98%
16:00 -1°C° 0 mm 5 mps 750 mmHg 97%
17:00 -1°C° 0 mm 5 mps 750 mmHg 95%
18:00 -1°C° 0 mm 5 mps 750 mmHg 94%
19:00 -1°C° 0 mm 5 mps 750 mmHg 95%
20:00 -1°C° 0 mm 5 mps 751 mmHg 95%
21:00 -1°C° 0 mm 5 mps 751 mmHg 96%
22:00 -1°C° 0 mm 4 mps 751 mmHg 96%
23:00 -1°C° 0 mm 4 mps 751 mmHg 96%

24 January, Sunday

Time Temperature Precipitation Wind Pressure Humidity
00:00 -1°C° 0 mm 4 mps 751 mmHg 96%
01:00 -1°C° 0 mm 4 mps 751 mmHg 96%
02:00 -1°C° 0 mm 4 mps 751 mmHg 96%
03:00 -1°C° 0 mm 5 mps 751 mmHg 96%
04:00 -1°C° 0.2 mm 5 mps 751 mmHg 97%
05:00 -1°C° 0.2 mm 4 mps 751 mmHg 98%
06:00 -1°C° 0.2 mm 4 mps 751 mmHg 99%
07:00 -1°C° 0.1 mm 5 mps 751 mmHg 98%
08:00 -1°C° 0.1 mm 5 mps 751 mmHg 96%
09:00 -1°C° 0.1 mm 5 mps 751 mmHg 95%
10:00 -1°C° 0 mm 5 mps 752 mmHg 94%
11:00 -1°C° 0 mm 5 mps 752 mmHg 93%
12:00 -2°C° 0 mm 5 mps 752 mmHg 92%
13:00 -1°C° 0.1 mm 5 mps 752 mmHg 93%
14:00 -1°C° 0.1 mm 5 mps 752 mmHg 93%
15:00 -1°C° 0.1 mm 4 mps 752 mmHg 94%
16:00 -1°C° 0.4 mm 4 mps 752 mmHg 94%
17:00 -1°C° 0.4 mm 4 mps 752 mmHg 93%
18:00 -1°C° 0.4 mm 4 mps 753 mmHg 93%
19:00 -1°C° 0.3 mm 5 mps 753 mmHg 93%
20:00 -1°C° 0.3 mm 5 mps 753 mmHg 93%
21:00 -1°C° 0.3 mm 5 mps 753 mmHg 94%
22:00 -1°C° 0.2 mm 5 mps 753 mmHg 93%
23:00 -1°C° 0.2 mm 5 mps 753 mmHg 92%

25 January, Monday

Time Temperature Precipitation Wind Pressure Humidity
00:00 -1°C° 0.2 mm 5 mps 753 mmHg 91%
01:00 -2°C° 0 mm 5 mps 754 mmHg 91%
02:00 -2°C° 0 mm 5 mps 754 mmHg 91%
03:00 -4°C° 0 mm 5 mps 754 mmHg 91%
04:00 -4°C° 0 mm 5 mps 754 mmHg 92%
05:00 -4°C° 0 mm 5 mps 754 mmHg 93%
06:00 -5°C° 0 mm 5 mps 753 mmHg 93%
07:00 -4°C° 0 mm 5 mps 753 mmHg 93%
08:00 -4°C° 0 mm 5 mps 753 mmHg 92%
09:00 -4°C° 0 mm 5 mps 753 mmHg 91%
10:00 -4°C° 0 mm 5 mps 753 mmHg 90%
11:00 -3°C° 0 mm 6 mps 753 mmHg 89%
12:00 -3°C° 0 mm 6 mps 753 mmHg 88%
13:00 -3°C° 0 mm 6 mps 753 mmHg 89%
14:00 -4°C° 0 mm 5 mps 753 mmHg 89%
15:00 -4°C° 0 mm 5 mps 752 mmHg 90%
16:00 -4°C° 0 mm 5 mps 752 mmHg 90%
17:00 -5°C° 0 mm 5 mps 752 mmHg 91%
18:00 -4°C° 0 mm 4 mps 752 mmHg 91%
19:00 -4°C° 0 mm 4 mps 752 mmHg 91%
20:00 -4°C° 0 mm 4 mps 752 mmHg 92%
21:00 -4°C° 0 mm 4 mps 753 mmHg 92%
22:00 -4°C° 0.1 mm 4 mps 752 mmHg 93%
23:00 -4°C° 0.1 mm 4 mps 752 mmHg 93%
Show more